TimeEST,TemperatureF,Dew PointF,Humidity,Sea Level PressureIn,VisibilityMPH,Wind Direction,Wind SpeedMPH,Gust SpeedMPH,PrecipitationIn,Events,Conditions,WindDirDegrees,DateUTC
12:53 AM,15.1,3.0,59,30.40,10.0,West,8.1,-,N/A,,Clear,260,2013-02-02 05:53:00
1:53 AM,15.1,3.0,59,30.38,10.0,ESE,3.5,-,N/A,,Clear,120,2013-02-02 06:53:00
2:53 AM,15.1,3.0,59,30.37,10.0,Calm,Calm,-,N/A,,Clear,0,2013-02-02 07:53:00
4:53 AM,14.0,3.0,62,30.35,10.0,South,3.5,-,N/A,,Clear,190,2013-02-02 09:53:00
5:53 AM,14.0,3.9,64,30.34,10.0,Calm,Calm,-,N/A,,Clear,0,2013-02-02 10:53:00
7:53 AM,14.0,5.0,67,30.34,10.0,Calm,Calm,-,N/A,,Clear,0,2013-02-02 12:53:00
8:53 AM,15.1,7.0,70,30.33,10.0,Calm,Calm,-,N/A,,Clear,0,2013-02-02 13:53:00
9:53 AM,18.0,7.0,62,30.32,10.0,South,5.8,-,N/A,,Mostly Cloudy,170,2013-02-02 14:53:00
10:53 AM,21.0,8.1,57,30.28,10.0,South,4.6,-,N/A,,Scattered Clouds,180,2013-02-02 15:53:00
11:53 AM,23.0,8.1,53,30.24,10.0,South,8.1,-,N/A,,Mostly Cloudy,180,2013-02-02 16:53:00
12:53 PM,24.1,8.1,51,30.19,10.0,SSW,11.5,-,N/A,,Mostly Cloudy,200,2013-02-02 17:53:00
1:53 PM,26.1,8.1,47,30.15,10.0,South,6.9,-,N/A,,Overcast,170,2013-02-02 18:53:00
2:53 PM,26.1,10.0,51,30.13,9.0,South,8.1,-,N/A,,Overcast,180,2013-02-02 19:53:00
3:53 PM,28.0,10.0,47,30.08,10.0,South,5.8,16.1,N/A,,Overcast,170,2013-02-02 20:53:00
4:53 PM,28.0,10.0,47,30.07,10.0,South,8.1,-,N/A,,Overcast,170,2013-02-02 21:53:00
5:53 PM,28.0,12.0,51,30.05,10.0,South,4.6,-,N/A,,Overcast,170,2013-02-02 22:53:00
6:53 PM,27.0,16.0,63,30.06,10.0,South,3.5,-,N/A,,Mostly Cloudy,170,2013-02-02 23:53:00
7:53 PM,26.1,18.0,71,30.05,10.0,Calm,Calm,-,N/A,,Overcast,0,2013-02-03 00:53:00
8:53 PM,27.0,18.0,69,30.03,10.0,Calm,Calm,-,N/A,,Overcast,0,2013-02-03 01:53:00
9:53 PM,26.1,19.0,75,30.02,10.0,Calm,Calm,-,N/A,,Overcast,0,2013-02-03 02:53:00
10:53 PM,26.1,19.0,75,30.01,10.0,Calm,Calm,-,N/A,,Overcast,0,2013-02-03 03:53:00
11:53 PM,25.0,19.0,78,30.02,10.0,Calm,Calm,-,N/A,,Overcast,0,2013-02-03 04:53:00